DECAYED

FENGYUN 1C DEB, 29811 (Decayed)

Orbit data source: Space-Track

FENGYUN 1C DEB, 29811 was space debris in SSO originally from a launch on Mon, 10 May 1999 UTC launched from the Taiyaun Space Center, China (TSC). Fengyun 1C debris stems from the Chinese weather satellite Fengyun-1C, which was intentionally destroyed by a Chinese anti-satellite missile in 2007. This event dramatically increased the amount of space debris, with thousands of trackable fragments posing hazards to satellites and human spaceflight. The Fengyun 1C debris cloud has become a focal point in discussions about space sustainability and the need for international regulations to prevent the creation of new debris.

Loading next visibility...
Identifier
29811, 1999-025DD
Orbit
Decayed
Country
Flag of CNCN / PRC
Related business
Manufacturer
Unknown
Mission
Decayed spacecraft
Bus & Motor
Unknown
Mass
Unknown
Launch date (UTC)
1999-05-10 (27 years ago)
Launch vehicle
Unknown
Launch site
Taiyaun Space Center, China (TSC)
Object type
Payload
Rocket body
Debris
Shape & HBR
Unknown shape, 0.1 m
Radar Cross Section
Medium (>0.1 m² and <1 m²)

Expand to show TLE details & history
Last TLE update: 1 year ago

TLE from 1 year ago
0 FENGYUN 1C DEB
1 29811U 99025DD  25080.14594126  .09813902  21036+0  46662-1 0  9991
2 29811  98.9589 306.7506 0004428 232.9623 127.1241 15.90664336942627
Epoch: 2025-03-21T03:30Z
TLE epoch observation values (Epoch: 2025-03-21T03:30:09.324Z)
Latitude
-0°
Longitude
75.30219°
Altitude
305.344 km
Speed
7.724 km/s
True Right ascension
20h 27m 00s
True Declination
0° 00' 00"
Sunlit
Object was in daylight at epoch
Visualization orbit readout
Latitude
Unknown
Longitude
Unknown
Altitude
Unknown
Speed
Unknown
Apparent Right ascension
Unknown
Apparent Declination
Unknown
Sunlit
N/A
Visualization observer readout
Local Sidereal Time
01:21:50
Azimuth
Unknown
Elevation
Unknown
Doppler factor
Unknown
Orbital elements
Apogee altitude
300.326 km
Perigee altitude
294.415 km
Semi-major axis
6,675.507 km
Eccentricity
0.00044
Inclination
98.9589°
RAAN
306.7506°
Arg. of periapsis
232.9623°
True anomaly
127.16454°
Mean anomaly
127.1241°
Eccentric anomaly
127.14432°
Mean motion
3.97939 °/min
Orbital period
90.47 mins
BSTAR
0.046662
Loading maneuver chart data...
Computing Atmospheric mass density...
Loading historical data...
Loading historical data...
Loading historical data...
Loading historical data...
Loading historical data...
Loading historical data...
Loading historical data...

Documentation

Showing up to 5 results
|